Other Public Products
Issued by NWS Grand Forks, ND

Home | Current Version | Previous Version | Graphics & Text | Print | Product List | Glossary On
Versions: 1 2 3 4 5 6 7 8 9 10 11 12 13 14 15 16 17 18 19 20 21 22 23 24 25 26 27 28 29 30 31 32 33 34 35 36 37 38 39 40 41 42 43 44 45 46 47 48 49 50
000
FPUS83 KFGF 020131
OPUFGF
PRAIRIE TO PINES WEATHER ROUNDUP
NATIONAL WEATHER SERVICE EASTERN NORTH DAKOTA/GRAND FORKS ND
800 PM CDT WED OCT 01 2014

 **SATELLITE DATA USED TO AUGMENT SKY COVER AT AUTOMATED STATIONS**
 *****  WEATHER ACROSS EASTERN NORTH DAKOTA  *****

CITY           SKY/WX    TMP DP  RH WIND       PRES   REMARKS
GRAND FORKS    CLOUDY    60  52  74 SW5       29.69R
GRAND FORKS AF CLOUDY    60  53  80 W7        29.70R
GRAND CITY NWS   N/A     59 N/A N/A W6          N/A
BUXTON           N/A     59  55  85 SW5         N/A
DEVILS LAKE    CLOUDY    57  46  67 W22       29.72R
FARGO          CLOUDY    63  50  62 W9        29.74R
WAHPETON ARPT  CLOUDY    61  46  59 W6        29.78R
$$

 *****  WEATHER ACROSS CENTRAL AND WESTERN NORTH DAKOTA  *****

CITY           SKY/WX    TMP DP  RH WIND       PRES   REMARKS
JAMESTOWN      CLOUDY    58  49  72 W10       29.77R
BISMARCK       CLOUDY    57  48  72 W8        29.82R
MINOT          MOCLDY    53  45  74 W12       29.76R
MINOT AFB      PTCLDY    51  48  89 W8        29.75R
GARRISON         N/A     53  47  79 NW6       29.80R
WILLISTON      MOCLDY    53  45  74 W7        29.82R
DICKINSON      LGT RAIN  53  45  74 NW9       29.85R
HETTINGER      CLOUDY    51  44  77 W8        29.89R
$$

 *****  OTHER OBSERVATIONS NORTHEAST NORTH DAKOTA  *****

CITY           SKY/WX    TMP DP  RH WIND       PRES   REMARKS
WALHALLA         N/A     57  50  77 W12G17    29.67R
LANGDON        CLOUDY    54  50  87 W10       29.69R
CAVALIER       CLOUDY    59  48  67 W13       29.67R
GRAFTON        CLOUDY    57  50  77 W7        29.68R
CANDO          CLOUDY    55  46  71 W17G24    29.73R
FORT TOTTEN      N/A     57  49  75 NW7       29.95
ROLLA          CLOUDY    54  48  82 W12       29.72R
RUGBY          MOCLDY    50  46  87 W13       29.74R
 ***** THE ABOVE OBSERVATIONS ARE NON NWS ARE NOT QUALITY
        CONTROLLED AND MAY MIS-REPORT RAIN FOR SNOW...
$$

 *****  OTHER OBSERVATIONS SOUTHEAST NORTH DAKOTA *****

CITY           SKY/WX    TMP DP  RH WIND       PRES   REMARKS
COOPERSTOWN    NOT AVBL
VALLEY CITY    CLOUDY    59  52  77 W14G22    29.77R
OAKES            N/A     55  50  82 SW9       29.79S
GWINNER        MOCLDY    59  48  67 W7        29.80R
SHEYENNE NWR     N/A     59  49  70 W5        29.95S
BUFFALO          N/A     59  47  63 SW8         N/A
WYNDMERE         N/A     61  50  67 W3          N/A
 ***** THE ABOVE OBSERVATIONS ARE NON NWS ARE NOT QUALITY
       CONTROLLED AND MAY MIS-REPORT RAIN FOR SNOW...
$$

  *****  WEATHER ACROSS NORTHERN MINNESOTA  *****

CITY           SKY/WX    TMP DP  RH WIND       PRES   REMARKS
FLAG ISLAND    CLOUDY    57  55  94 S7        29.62R
WARROAD        CLOUDY    59  55  88 SW7       29.65R
ROSEAU         CLOUDY    61  55  82 SW7       29.65R
HALLOCK        MOCLDY    59  52  77 W10       29.66R
THF RVR FALLS  CLOUDY    59  52  77 SW7       29.70R
HALSTAD          N/A     60  48  65 SW7         N/A
FOSSTON        CLOUDY    57  50  77 SW9       29.73R
BAUDETTE       CLOUDY    57  53  86 S13       29.66R
WASKISH        CLOUDY    55  54  94 CALM      29.71R
CROOKSTON      PTCLDY    59  54  82 SW7       29.71R
$$
  *****  WEATHER ACROSS CENTRAL AND WEST MINNESOTA  *****

CITY           SKY/WX    TMP DP  RH WIND       PRES   REMARKS
BEMIDJI        CLOUDY    56  54  92 S6        29.74R
PARK RAPIDS    CLOUDY    57  55  93 S8        29.76R
WADENA         MOCLDY    57  55  94 CALM      29.77R
DETROIT LAKES  CLOUDY    61  50  67 SW5       29.77R
MOORHEAD       NOT AVBL
FERGUS FALLS   MOCLDY    59  48  67 W6        29.78R
ELBOW LAKE     FAIR      56  49  79 W7        29.78R
MORRIS MN      CLEAR     61  52  72 NW6       29.78R
STAPLES        PTCLDY    54  52  94 S5        29.78R
WHEATON        CLEAR     55  48  76 CALM      29.81R
$$
  *****  WEATHER ELSEWHERE ACROSS MINNESOTA  *****

CITY           SKY/WX    TMP DP  RH WIND       PRES   REMARKS
DULUTH         FOG       51  49  92 S8        29.80S VSB 1
INTRNTL FALLS  CLOUDY    53  50  89 S9        29.71R
ELY            CLOUDY    48  46  93 S7        29.78S
CLOQUET        CLOUDY    52  48  87 S6        29.81R FOG
BRAINERD       CLOUDY    53  52  96 S6        29.80R FOG
HIBBING        CLOUDY    51  49  92 S8        29.79R FOG
ALEXANDRIA     PTCLDY    60  56  86 W8        29.79R
SAINT CLOUD    CLOUDY    58  54  86 SE7       29.80R
MINNEAPOLIS    CLOUDY    57  56  96 SE6       29.80F FOG
$$

  *****  WEATHER ACROSS SOUTH DAKOTA  *****

CITY           SKY/WX    TMP DP  RH WIND       PRES   REMARKS
SIOUX FALLS    MOCLDY    61  53  75 CALM      29.79R
BROOKINGS      NOT AVBL
WATERTOWN      PTCLDY    58  50  75 NW7       29.80R
HURON          PTCLDY    62  48  60 N13       29.81R
SISSETON         N/A     57  49  74 W6        29.78R
ABERDEEN       PTCLDY    58  48  69 W8        29.82R
MITCHELL       PTCLDY    62  50  64 NW7       29.80R
PIERRE         MOCLDY    57  46  66 NW10      29.86R
MOBRIDGE       MOCLDY    57  48  72 W8        29.83R
RAPID CITY     CLOUDY    52  41  66 N10       29.94R
$$

  *****  SOME WEATHER IN NEARBY STATES *****

CITY           SKY/WX    TMP DP  RH WIND       PRES   REMARKS
GLASGOW MT     PTCLDY    53  35  50 NW6       29.84S
GREAT FALLS MT CLEAR     51  29  42 W14       29.91R
CHEYENNE WY    MOCLDY    41  35  79 N6        30.00R
SCOTTSBLUFF NE LGT RAIN  48  45  89 NW9       29.98R
OMAHA NE       MOCLDY    69  64  84 CALM      29.76R
DES MOINES IA  PTCLDY    67  63  87 SE5       29.78R
DAVENPORT IA   NOT AVBL
CHICAGO IL     MOCLDY    66  53  63 SE13      29.90S
EAU CLAIRE WI  CLOUDY    56  55  97 CALM      29.83S FOG
LA CROSSE WI   CLOUDY    62  57  83 NW3       29.81S
$$

  *****  SOME NATIONAL WEATHER *****

CITY           SKY/WX    TMP DP  RH WIND       PRES   REMARKS
LA GUARDIA NY  CLOUDY    64  56  75 NE12      30.06S
RALEIGH NC     PTCLDY    66  62  87 CALM      30.03R
ATLANTA GA     PTCLDY    74  59  59 S5        30.01R
NEW ORLEANS LA PTCLDY    80  75  84 SE8       29.91R
OKLAHOMA CITY  PTCLDY    84  65  52 SE16G24   29.71R
ALBUQUERQUE NM MOCLDY    74  28  18 W13       29.90R
SALT LAKE CITY PTCLDY    53  36  52 NE9       30.15R
LOS ANGELES CA CLEAR     69  62  78 W8        29.80R
BOISE ID       CLEAR     61  33  35 N7        30.14S
SEATTLE WA     PTCLDY    62  47  57 SW3       30.18S
$$

*** WEATHER ACROSS MANITOBA...SASKATCHEWAN AND ONTARIO ***
                ***ONTARIO***

CITY           SKY/WX    TMP DP  RH WIND       PRES   REMARKS
GERALDTON      CLOUDY    52  48  87 S9        29.82F
THUNDER BAY    CLOUDY    50  50 100 E7        29.81F FOG
SIOUX LOOKOUT  LGT RAIN  52  50  93 S10G20    29.67R
TORONTO        CLOUDY    61  57  88 NE6       30.08S
BIG TROUT LK   CLOUDY    55  48  76 S16G24    29.54S
PICKLE LAKE    LGT RAIN  50  46  87 S15G22    29.64F
DRYDEN         CLOUDY    52  50  93 S15G24    29.65R
KENORA         LGT RAIN  55  54  94 S12       29.61R
$$
                *** MANITOBA***

CITY           SKY/WX    TMP DP  RH WIND       PRES   REMARKS
BRANDON        MOCLDY    54  46  76 W18G25    29.67R
DAUPHIN        PTCLDY    54  46  76 W16G23    29.60R
ISLAND LAKE    CLOUDY   N/A N/A N/A S12G21      N/A
PILOT MOUND      N/A     54  48  82 W10         N/A
THE PAS        LGT RAIN  46  45  93 NW22G31   29.52R
THOMPSON       LGT RAIN  46  46 100 W5        29.32S FOG
WINNIPEG       CLOUDY    59  50  72 W13       29.60R
LYNN LAKE      LGT RAIN  45  45 100 NW14G21   29.44R FOG
CHURCHILL      LGT RAIN  43  41  93 SE12      29.38F
GILLAM         DRZL/FOG  50  50 100 SE2       29.30F VSB 3/4
$$
                ***SASKATCHEWAN***

CITY           SKY/WX    TMP DP  RH WIND       PRES   REMARKS
ESTEVAN        MOCLDY    50  46  87 W7        29.77R
KINDERSLEY     MOCLDY    50  32  50 SW3       29.75S
LLOYDMINSTER   MOCLDY    46  34  61 SW14G20   29.73F
PRINCE ALBERT  PTCLDY    52  37  58 NW6       29.65R
REGINA         PTCLDY    48  41  76 W8        29.75R


USA.gov is the U.S. government's official web portal to all federal, state and local government web resources and services.